[[{"header":{"parameterUnit":"m.s-1","parameterCategory":1,"la1":30.2991,"la2":30.254,"lo1":-89.0895,"lo2":-89.0444,"dy":0.0017,"dx":0.0017,"nx":28,"ny":28,"refTime":"2024-08-20T09:00:00:Z","depth":0,"parameterNumber":2,"parameterNumberName":"U-component_of_WINDS"},"data":[0,0,0,0,0,0,0,0,0,0,0,0,0,0,0,0,0,0,0,0,0,0,0,0,0,0,0,0,0,0,0,0,0,0,0,0,0,0,0,0,0,0,0,0,0,0,0,0,0,0,0,0,0,0,0,0,0,0,0.5627,0.5625,0,0.5459,0.5457,0.5455,0.5369,0.5369,0.5369,0.5369,0.52,0.5196,0.5192,0,0,0,0,0,0,0,0,0,0,0,0,0,0.5876,0.5872,0.5627,0.5625,0.5623,0.5459,0.5457,0.5455,0.5369,0.5369,0.5369,0.5369,0.5202,0.5196,0.5191,0,0,0,0,0,0,0,0,0,0,0,0,0,0.5744,0.5871,0.5628,0.5561,0.5553,0.546,0.5457,0.5454,0.5369,0.5369,0.5369,0.5369,0.5203,0.5197,0.519,0.5152,0,0,0.517,0.5167,0,0,0,0,0,0,0,0,0.5752,0.5735,0.5573,0.5565,0.5556,0.5435,0.5483,0.5353,0.5369,0.5439,0.5369,0.5369,0.5279,0.5266,0.5235,0.5145,0.5137,0.517,0.5166,0.5163,0.5161,0,0,0,0,0,0,0,0.5761,0.5742,0.5561,0.557,0.556,0.554,0.5521,0.5458,0.5362,0.5433,0.5426,0.5407,0.5274,0.5241,0.523,0.5135,0.517,0.5164,0.516,0.5157,0.5003,0.5003,0,0,0,0,0,0,0.5781,0.575,0.5566,0.5556,0.5656,0.5535,0.5514,0.5474,0.5362,0.5345,0.5408,0.5404,0.5253,0.5238,0.5224,0.5171,0.5163,0.5157,0.5153,0.5003,0.5003,0.5003,0,0,0,0,0,0,0.5787,0.5765,0.5573,0.5651,0.5625,0.5531,0.5487,0.5471,0.5438,0.5343,0.5326,0.5392,0.5252,0.5233,0.517,0.5164,0.5154,0.5148,0.5004,0.5003,0.5003,0.5066,0,0,0,0,0,0,0.5794,0.5768,0.5752,0.5651,0.5621,0.5522,0.5486,0.5468,0.5426,0.542,0.5323,0.5307,0.525,0.518,0.5164,0.5154,0.5142,0.5004,0.5004,0.5003,0.5064,0.5067,0.5071,0,0,0,0,0,0.5803,0.5778,0.5752,0.573,0.5599,0.5522,0.5504,0.5438,0.5426,0.541,0.5348,0.531,0.5167,0.5175,0.5155,0.5144,0.5004,0.5004,0.5003,0.5062,0.5067,0.5071,0,0,0,0,0,0,0.5882,0.5763,0.5733,0.5674,0.5608,0.5507,0.5485,0.5446,0.5383,0.538,0.5302,0.5281,0.5225,0.5178,0.5189,0.51,0.5082,0.5078,0.5133,0.5137,0.514,0.5153,0.5137,0,0,0,0,0,0.5892,0.5838,0.5737,0.5695,0.5663,0.558,0.5544,0.5498,0.5427,0.54,0.5334,0.5268,0.5207,0.5169,0.5109,0.5056,0.5034,0.5039,0.5042,0.5046,0.5043,0.501,0.5011,0.5002,0.5002,0.5002,0,0,0.5913,0.5842,0.5812,0.5709,0.5653,0.5599,0.5557,0.5502,0.5461,0.5392,0.5327,0.5277,0.5198,0.5139,0.511,0.5099,0.504,0.5045,0.5049,0.5044,0.501,0.5011,0.5012,0.5002,0.5002,0.5002,0,0,0.5924,0.5864,0.5821,0.5765,0.568,0.5624,0.5614,0.5518,0.5481,0.5415,0.5361,0.5312,0.521,0.5155,0.5114,0.5102,0.5064,0.5085,0.5103,0.5073,0.5073,0.5073,0.5068,0.5067,0.5082,0.5082,0.5082,0,0.5961,0.5877,0.5805,0.5752,0.5708,0.564,0.5596,0.5546,0.5446,0.5417,0.5405,0.5274,0.5216,0.5143,0.514,0.5109,0.5095,0.5095,0.5079,0.5078,0.5077,0.5072,0.507,0.5085,0.5085,0.5085,0.5084,0,0.5926,0.5868,0.5844,0.5747,0.57,0.5653,0.5574,0.5535,0.5493,0.5439,0.5372,0.53,0.5223,0.5202,0.5162,0.5123,0.5118,0.5094,0.5073,0.5082,0.5076,0.5073,0.509,0.5088,0.5088,0.5087,0,0,0.5983,0.5845,0.5837,0.5792,0.5692,0.5646,0.5595,0.5518,0.5486,0.5419,0.5374,0.5288,0.5264,0.5217,0.517,0.5143,0.5136,0.5121,0.5118,0.5126,0.5088,0.5107,0.5106,0.511,0.511,0.5109,0.5094,0,0.5979,0.5883,0.5816,0.5746,0.5691,0.5625,0.558,0.5514,0.5462,0.5408,0.5351,0.5291,0.5264,0.5235,0.5205,0.5143,0.5128,0.5144,0.5068,0.5066,0.509,0.5102,0.5123,0.5112,0.5091,0.5091,0.5091,0,0.5962,0.5895,0.5819,0.5723,0.5697,0.5658,0.5581,0.5531,0.5454,0.5418,0.5365,0.5316,0.5259,0.5243,0.5164,0.5176,0.5141,0.5106,0.5104,0.5094,0.5079,0.5093,0.5108,0.5106,0.5086,0.5086,0.5087,0,0.6011,0.5902,0.5841,0.5804,0.5691,0.5665,0.5616,0.5539,0.5497,0.543,0.5401,0.533,0.529,0.5236,0.5168,0.5163,0.5095,0.5075,0.5064,0.5065,0.5053,0.5055,0.5062,0.5031,0.5031,0.5031,0.5031,0,0.6014,0.597,0.5861,0.5825,0.5773,0.5696,0.5648,0.5594,0.5526,0.5477,0.5416,0.5372,0.5286,0.5232,0.5179,0.512,0.5104,0.5073,0.5059,0.5078,0.5082,0.5054,0.5053,0.5031,0.5031,0.5031,0.5031,0,0.606,0.5985,0.5915,0.5812,0.5785,0.5752,0.5664,0.5626,0.5569,0.5509,0.549,0.5402,0.5334,0.5261,0.517,0.5135,0.5079,0.506,0.5104,0.5097,0.509,0.5091,0.5079,0.5073,0.5048,0.5048,0.5048,0,0.6067,0.6031,0.5923,0.5886,0.5838,0.5779,0.5734,0.5657,0.5613,0.5522,0.5495,0.5422,0.536,0.5256,0.5184,0.5113,0.5092,0.5092,0.5081,0.51,0.5091,0.5094,0.5089,0.5096,0.5097,0.5098,0.5098,0,0.6087,0.6051,0.5988,0.5912,0.586,0.5797,0.5731,0.5704,0.5614,0.5568,0.5497,0.5449,0.5354,0.5283,0.5203,0.5154,0.5111,0.5102,0.5095,0.5114,0.5141,0.5126,0.5114,0.5103,0.5102,0.5102,0.5102,0.5101,0.6113,0.6077,0.5995,0.5927,0.5869,0.5808,0.5767,0.5704,0.5643,0.5559,0.5517,0.5446,0.5369,0.5257,0.5209,0.5152,0.5139,0.5131,0.5128,0.5127,0.5132,0.515,0.5138,0.5138,0.5137,0.5137,0.5137,0,0.6129,0.6072,0.601,0.5919,0.5865,0.5827,0.5752,0.571,0.5648,0.5579,0.5518,0.5436,0.5366,0.5288,0.5213,0.5183,0.5161,0.5166,0.5167,0.5157,0.5148,0.5161,0.5185,0.5185,0.5185,0.5185,0.5185,0.5185,0.6131,0.6069,0.6023,0.593,0.5874,0.5803,0.5763,0.5707,0.5651,0.5561,0.5502,0.5451,0.5377,0.5296,0.523,0.5209,0.5184,0.5194,0.5168,0.5161,0.5157,0.5154,0.5165,0.519,0.519,0.518,0.518,0.518]},{"header":{"parameterUnit":"m.s-1","parameterCategory":1,"la1":30.2991,"la2":30.254,"lo1":-89.0895,"lo2":-89.0444,"dy":0.0017,"dx":0.0017,"nx":28,"ny":28,"refTime":"2024-08-20T09:00:00:Z","depth":0,"parameterNumber":3,"parameterNumberName":"V-component_of_WINDS"},"data":[0,0,0,0,0,0,0,0,0,0,0,0,0,0,0,0,0,0,0,0,0,0,0,0,0,0,0,0,0,0,0,0,0,0,0,0,0,0,0,0,0,0,0,0,0,0,0,0,0,0,0,0,0,0,0,0,0,0,-2.657,-2.657,0,-2.6583,-2.6583,-2.6584,-2.6542,-2.654,-2.6539,-2.6538,-2.6554,-2.6556,-2.6557,0,0,0,0,0,0,0,0,0,0,0,0,0,-2.651,-2.6511,-2.657,-2.657,-2.657,-2.6583,-2.6583,-2.6584,-2.6542,-2.654,-2.6539,-2.6537,-2.6553,-2.6555,-2.6557,0,0,0,0,0,0,0,0,0,0,0,0,0,-2.6531,-2.6512,-2.657,-2.6551,-2.6549,-2.6583,-2.6583,-2.6584,-2.6542,-2.654,-2.6538,-2.6537,-2.6553,-2.6555,-2.6558,-2.6611,0,0,-2.6565,-2.6566,0,0,0,0,0,0,0,0,-2.653,-2.6533,-2.6553,-2.6552,-2.655,-2.6559,-2.6568,-2.6593,-2.6543,-2.6545,-2.6538,-2.6536,-2.6557,-2.6559,-2.6566,-2.6612,-2.6613,-2.6565,-2.6567,-2.6568,-2.6569,0,0,0,0,0,0,0,-2.6529,-2.6533,-2.6575,-2.6554,-2.6552,-2.6542,-2.6543,-2.6573,-2.6562,-2.6545,-2.6542,-2.6544,-2.6556,-2.6564,-2.6566,-2.6613,-2.6565,-2.6567,-2.6569,-2.657,-2.6706,-2.6708,0,0,0,0,0,0,-2.6529,-2.6532,-2.6575,-2.6575,-2.6535,-2.6545,-2.6546,-2.6558,-2.6561,-2.656,-2.6545,-2.6542,-2.6561,-2.6563,-2.6567,-2.6631,-2.6568,-2.657,-2.6572,-2.6704,-2.6706,-2.6709,0,0,0,0,0,0,-2.6528,-2.6533,-2.6574,-2.6553,-2.6557,-2.6548,-2.6562,-2.6559,-2.6567,-2.6562,-2.656,-2.6555,-2.6559,-2.6563,-2.6601,-2.6631,-2.6571,-2.6573,-2.6701,-2.6705,-2.6708,-2.676,0,0,0,0,0,0,-2.6527,-2.6533,-2.6553,-2.6553,-2.6558,-2.6607,-2.6564,-2.6561,-2.6571,-2.6566,-2.6571,-2.6569,-2.6558,-2.6597,-2.6603,-2.6633,-2.6575,-2.6699,-2.6703,-2.6707,-2.6755,-2.6764,-2.6772,0,0,0,0,0,-2.6525,-2.6567,-2.6554,-2.6559,-2.6583,-2.6609,-2.6612,-2.6597,-2.6574,-2.6594,-2.6591,-2.6569,-2.6627,-2.6602,-2.6608,-2.6639,-2.6697,-2.6702,-2.6706,-2.6752,-2.6763,-2.6772,0,0,0,0,0,0,-2.6571,-2.6567,-2.6552,-2.6596,-2.6603,-2.6602,-2.6627,-2.6609,-2.6624,-2.6619,-2.6601,-2.6602,-2.6644,-2.6645,-2.6617,-2.6692,-2.6658,-2.6664,-2.669,-2.6701,-2.6709,-2.6708,-2.6577,0,0,0,0,0,-2.6586,-2.6607,-2.6603,-2.6642,-2.6646,-2.6636,-2.6647,-2.6635,-2.6642,-2.6645,-2.6645,-2.6653,-2.6673,-2.6687,-2.6705,-2.6755,-2.6757,-2.678,-2.6788,-2.6795,-2.6801,-2.683,-2.6841,-2.6725,-2.6725,-2.6724,0,0,-2.6618,-2.6618,-2.6632,-2.6651,-2.6655,-2.6679,-2.6639,-2.6665,-2.6682,-2.6649,-2.6685,-2.6685,-2.6693,-2.6738,-2.6758,-2.6741,-2.6834,-2.6801,-2.6807,-2.6809,-2.6836,-2.6847,-2.6857,-2.6728,-2.6727,-2.6727,0,0,-2.6688,-2.6689,-2.6723,-2.6728,-2.6735,-2.6728,-2.6736,-2.6738,-2.6737,-2.6772,-2.6748,-2.6769,-2.6804,-2.6811,-2.6819,-2.6894,-2.6875,-2.69,-2.6944,-2.6973,-2.6982,-2.699,-2.7018,-2.7028,-2.6906,-2.6906,-2.6906,0,-2.6727,-2.676,-2.6743,-2.6771,-2.678,-2.6751,-2.6786,-2.6792,-2.6804,-2.6812,-2.6792,-2.6836,-2.6839,-2.6886,-2.6905,-2.6912,-2.6922,-2.69,-2.6982,-2.699,-2.6997,-2.7024,-2.7034,-2.6909,-2.6909,-2.6908,-2.6908,0,-2.6808,-2.6832,-2.6858,-2.6871,-2.6883,-2.6915,-2.6903,-2.6918,-2.6906,-2.6901,-2.6939,-2.6942,-2.6961,-2.6971,-2.6959,-2.7017,-2.7006,-2.6984,-2.6949,-2.7011,-2.7036,-2.7046,-2.6914,-2.6912,-2.6912,-2.6911,0,0,-2.6908,-2.6911,-2.6921,-2.6927,-2.6933,-2.6951,-2.6982,-2.7,-2.7014,-2.7024,-2.705,-2.7081,-2.7061,-2.707,-2.7059,-2.7084,-2.7144,-2.7059,-2.7059,-2.7076,-2.7211,-2.7228,-2.724,-2.7132,-2.7134,-2.7135,-2.7211,0,-2.6978,-2.7029,-2.7015,-2.7067,-2.709,-2.7063,-2.709,-2.7097,-2.7094,-2.7114,-2.7111,-2.7134,-2.7105,-2.7111,-2.7134,-2.7132,-2.7172,-2.7126,-2.7158,-2.7159,-2.7158,-2.7253,-2.7271,-2.7342,-2.722,-2.7222,-2.7223,0,-2.7066,-2.708,-2.7134,-2.7137,-2.7146,-2.7171,-2.7187,-2.7205,-2.7214,-2.721,-2.7221,-2.7206,-2.7237,-2.7202,-2.7246,-2.7216,-2.7228,-2.7229,-2.7232,-2.7235,-2.7195,-2.726,-2.7364,-2.7376,-2.7238,-2.7236,-2.7235,0,-2.7136,-2.7167,-2.7204,-2.721,-2.7214,-2.7232,-2.7235,-2.7241,-2.7253,-2.7268,-2.7276,-2.7294,-2.7305,-2.732,-2.731,-2.7285,-2.7357,-2.732,-2.7357,-2.7357,-2.7374,-2.7373,-2.7483,-2.738,-2.738,-2.7379,-2.7379,0,-2.7216,-2.7251,-2.7235,-2.7258,-2.7297,-2.7281,-2.732,-2.732,-2.7326,-2.7349,-2.7327,-2.735,-2.7335,-2.7357,-2.7349,-2.7389,-2.7393,-2.7392,-2.739,-2.7395,-2.7396,-2.7404,-2.7399,-2.7382,-2.7382,-2.7381,-2.738,0,-2.73,-2.7291,-2.733,-2.7331,-2.7332,-2.736,-2.7362,-2.7384,-2.7379,-2.741,-2.7416,-2.741,-2.7435,-2.7426,-2.7453,-2.7448,-2.7498,-2.7489,-2.7496,-2.7494,-2.7531,-2.7529,-2.7651,-2.7667,-2.7552,-2.7553,-2.7554,0,-2.7353,-2.7379,-2.7383,-2.7397,-2.7401,-2.7423,-2.7436,-2.7421,-2.7435,-2.7448,-2.7469,-2.7492,-2.7509,-2.7551,-2.7549,-2.757,-2.7562,-2.7604,-2.7565,-2.757,-2.7565,-2.7564,-2.7568,-2.7612,-2.7613,-2.7614,-2.7615,0,-2.7448,-2.7442,-2.746,-2.7478,-2.7493,-2.7506,-2.7517,-2.753,-2.7517,-2.7534,-2.7559,-2.7572,-2.76,-2.7624,-2.7643,-2.7647,-2.763,-2.7627,-2.7637,-2.7643,-2.7646,-2.7647,-2.7518,-2.7625,-2.7624,-2.7623,-2.7622,-2.7622,-2.7519,-2.7542,-2.7548,-2.757,-2.7576,-2.7588,-2.7609,-2.7607,-2.7627,-2.7648,-2.7639,-2.7668,-2.7677,-2.7701,-2.7708,-2.7732,-2.7716,-2.773,-2.7734,-2.7738,-2.7743,-2.7641,-2.7735,-2.7735,-2.7735,-2.7734,-2.7734,0,-2.7615,-2.7617,-2.7637,-2.7653,-2.7671,-2.7652,-2.7663,-2.768,-2.7706,-2.7715,-2.7733,-2.7763,-2.7786,-2.7787,-2.7809,-2.7828,-2.7821,-2.7834,-2.7834,-2.7835,-2.7755,-2.7745,-2.784,-2.784,-2.784,-2.784,-2.784,-2.784,-2.7666,-2.7704,-2.7699,-2.774,-2.7743,-2.7771,-2.778,-2.7791,-2.7798,-2.7832,-2.7851,-2.7851,-2.7858,-2.788,-2.7902,-2.7901,-2.7911,-2.7928,-2.7925,-2.7851,-2.7841,-2.7831,-2.7821,-2.793,-2.793,-2.8003,-2.8004,-2.8005]}]]